Miscellaneous Local Product
Issued by NWS Hastings, NE

Home | Current Version | Previous Version | Text Only | Print | Product List | Glossary On
Versions: 1 2 3 4 5 6 7 8 9 10 11 12 13 14 15 16 17 18 19 20 21 22 23 24 25 26 27 28 29 30 31 32 33 34 35 36 37 38 39 40 41 42 43 44 45 46 47 48 49 50
000
AXUS43 KGID 211302
MISGRI

GID CWA HOURLY WEATHER ROUNDUP
NATIONAL WEATHER SERVICE HASTINGS NE
800 AM CDT SAT OCT 21 2017

NOTE: "FAIR" INDICATES FEW OR NO CLOUDS BELOW 12,000 FEET WITH NO
SIGNIFICANT WEATHER AND/OR OBSTRUCTIONS TO VISIBILITY.

...SOUTH CENTRAL NEBRASKA...

CITY           SKY/WX    TMP DP  RH WIND       PRES   REMARKS
GRAND ISLAND   CLOUDY    66  62  87 S17G26    29.53F
KEARNEY        PTCLDY    63  59  87 S17G24    29.53R
HASTINGS       CLOUDY    66  60  81 S13G22    29.56R
ORD            PTCLDY    59  57  93 CALM      29.51R
YORK           CLOUDY    68  63  83 S23G31    29.57F
AURORA         CLOUDY    68  61  79 S23G31    29.55S
LEXINGTON      CLOUDY    57  51  80 W18       29.55R
HOLDREGE       PTCLDY    61  57  85 SW10      29.53R
HEBRON         CLOUDY    69  63  79 S17G30    29.61R

...NEBRASKA PANHANDLE...

CITY           SKY/WX    TMP DP  RH WIND       PRES   REMARKS
CHADRON        CLOUDY    48  25  40 NW22G35   29.72R
ALLIANCE       CLOUDY    47  23  38 NW20G29   29.79R
SCOTTSBLUFF    CLOUDY    47  23  38 W12       29.83R
SIDNEY         CLOUDY    47  20  34 NW22G35   29.83R

...WESTERN AND NORTH CENTRAL NEBRASKA...

CITY           SKY/WX    TMP DP  RH WIND       PRES   REMARKS
VALENTINE      CLOUDY    51  37  58 NW24G31   29.61R
AINSWORTH      CLEAR     53  39  60 NW22G29   29.60R
ONEILL         CLOUDY    60  60  98 W10G16    29.54R
BROKEN BOW     MOCLDY    58  55  90 NW15G22   29.54R
IMPERIAL       CLOUDY    52  26  36 NW21G35   29.75R
NORTH PLATTE   CLEAR     54  33  45 NW22G28   29.66R
MCCOOK         CLEAR     55  35  47 NW24G35   29.64R

...EASTERN NEBRASKA...

CITY           SKY/WX    TMP DP  RH WIND       PRES   REMARKS
NORFOLK        CLOUDY    68  61  78 S14G26    29.53F
SO SIOUX CITY  CLOUDY    66  62  87 S13G21    29.56R
TEKAMAH        CLOUDY    67  61  81 SE14G21   29.59F
COLUMBUS       CLOUDY    70  62  76 S20G31    29.57R
ALBION         CLOUDY    68  62  79 S15G21    29.53S
OMAHA EPPLEY   CLOUDY    68  61  78 S21       29.64R
OFFUTT AFB     CLOUDY    68  61  78 S13G28    29.64R
MILLARD        CLOUDY    68  63  83 SE12G18   29.64R
LINCOLN        CLOUDY    69  62  78 S18       29.60S
NEBRASKA CITY  CLOUDY    67  64  89 S23G33    29.66S
BEATRICE       CLOUDY    68  63  82 S20G28    29.62S
FALLS CITY     CLOUDY    67  60  78 S17G30    29.69F

...NORTHERN KANSAS...

CITY           SKY/WX    TMP DP  RH WIND       PRES   REMARKS
GOODLAND       PTCLDY    51  22  31 NW20G32   29.75R
HILL CITY      CLEAR     59  43  55 W12       29.64R
NORTON         SUNNY     54  37  54 W12       29.59R
PHILLIPSBURG   PTCLDY    63  46  55 SW13      29.59R
SMITH CENTER   MOCLDY    64  59  82 S16G25    29.59R
HAYS           CLEAR     63  59  87 SW15      29.64R
RUSSELL        MOCLDY    66  63  90 S24G36    29.63R
CONCORDIA      LGT RAIN  68  63  84 S23G33    29.62R
SALINA         PTCLDY    71  64  78 S25G37    29.65S
TOPEKA         CLOUDY    68  62  81 S18G37    29.75F



USA.gov is the U.S. government's official web portal to all federal, state and local government web resources and services.